[[[{"header":{"parameterUnit":"kt","parameterCategory":2,"dx":1,"dy":1,"la1":30.253999710083008,"la2":30.299108505249023,"lo1":-89.0895004272461,"lo2":-89.04439544677734,"nx":28,"ny":28,"refTime":"2022-09-23T21:00:00:Z","depth":"0","parameterNumber":2,"parameterNumberName":"U-component_of_CURRENTS"},"data":[-0.1475,-0.1499,-0.1483,-0.1565,-0.16,-0.1666,-0.1686,-0.1666,-0.1671,-0.1734,-0.1851,-0.1927,-0.2085,-0.2149,-0.2042,-0.1915,-0.1743,-0.1711,-0.16,-0.1662,-0.1656,-0.165,-0.1606,-0.1702,-0.1702,-0.1481,-0.1479,-0.1477,-0.1418,-0.1402,-0.1434,-0.1482,-0.1541,-0.154,-0.159,-0.1598,-0.1652,-0.169,-0.1746,-0.1928,-0.1989,-0.2024,-0.21,-0.1963,-0.1858,-0.1817,-0.174,-0.168,-0.1806,-0.1771,-0.1905,-0.1905,-0.1905,-0.1905,-0.1905,-0.1905,-0.13,-0.1329,-0.134,-0.1386,-0.1434,-0.1484,-0.1522,-0.1556,-0.1613,-0.1652,-0.171,-0.1775,-0.1877,-0.193,-0.1906,-0.1895,-0.1807,-0.1815,-0.1762,-0.1729,-0.1643,-0.175,-0.1915,-0.1915,-0.1914,-0.1914,-0.1914,0,-0.1213,-0.1204,-0.1251,-0.1292,-0.1339,-0.1396,-0.1443,-0.1474,-0.149,-0.1542,-0.1621,-0.1661,-0.1738,-0.1801,-0.1828,-0.1809,-0.1656,-0.1744,-0.1682,-0.1605,-0.1555,-0.1479,-0.1541,-0.173,-0.1729,-0.1728,-0.1727,-0.1726,-0.1074,-0.1126,-0.1172,-0.1205,-0.1238,-0.1296,-0.1328,-0.134,-0.1374,-0.1431,-0.1468,-0.1521,-0.1557,-0.1632,-0.1641,-0.1676,-0.156,-0.1706,-0.1625,-0.1559,-0.1489,-0.1439,-0.1377,-0.171,-0.1712,-0.1714,-0.1715,0,-0.0985,-0.1011,-0.1105,-0.1153,-0.1168,-0.1218,-0.1255,-0.1297,-0.1302,-0.1358,-0.137,-0.1378,-0.1422,-0.14,-0.1447,-0.1436,-0.1466,-0.1506,-0.1517,-0.1514,-0.15,-0.144,-0.1571,-0.1517,-0.1616,-0.1618,-0.1619,0,-0.0878,-0.0957,-0.0988,-0.104,-0.112,-0.1118,-0.119,-0.1194,-0.1213,-0.1257,-0.1222,-0.1268,-0.1231,-0.1273,-0.1258,-0.1324,-0.1336,-0.1323,-0.1321,-0.1325,-0.1325,-0.1279,-0.1216,-0.1308,-0.1307,-0.1306,-0.1305,0,-0.0752,-0.0855,-0.0943,-0.0966,-0.1014,-0.1048,-0.1062,-0.107,-0.1092,-0.1118,-0.1139,-0.1161,-0.1176,-0.1201,-0.1183,-0.1135,-0.1268,-0.1198,-0.126,-0.1261,-0.1293,-0.1292,-0.1406,-0.1303,-0.1303,-0.1303,-0.1302,0,-0.0668,-0.0722,-0.0839,-0.0889,-0.0906,-0.0955,-0.0981,-0.1014,-0.1025,-0.1023,-0.1037,-0.1011,-0.1051,-0.0989,-0.106,-0.1005,-0.1028,-0.103,-0.1035,-0.1041,-0.0973,-0.1112,-0.1273,-0.1217,-0.1056,-0.1054,-0.1052,0,-0.053,-0.0652,-0.0654,-0.0759,-0.0811,-0.0774,-0.0816,-0.083,-0.0829,-0.0868,-0.0847,-0.0884,-0.0826,-0.0831,-0.0863,-0.0858,-0.0924,-0.0839,-0.0912,-0.0915,-0.0923,-0.1067,-0.1094,-0.1233,-0.1024,-0.1027,-0.1029,0,-0.0417,-0.048,-0.0495,-0.0529,-0.0554,-0.0588,-0.0631,-0.067,-0.0697,-0.0715,-0.0767,-0.0789,-0.0761,-0.0765,-0.0734,-0.077,-0.0875,-0.0731,-0.0731,-0.0785,-0.0999,-0.1023,-0.1044,-0.085,-0.0854,-0.0856,-0.1007,0,-0.0327,-0.0366,-0.0404,-0.0451,-0.0472,-0.0527,-0.0519,-0.0542,-0.0529,-0.0539,-0.0587,-0.0582,-0.0607,-0.0608,-0.0583,-0.0663,-0.0652,-0.0612,-0.0568,-0.0653,-0.0707,-0.0725,-0.0488,-0.0487,-0.0485,-0.0484,0,0,-0.0199,-0.0259,-0.0235,-0.0294,-0.0318,-0.028,-0.0345,-0.0357,-0.0395,-0.0409,-0.0384,-0.0436,-0.0429,-0.0483,-0.0508,-0.0502,-0.0526,-0.0487,-0.0604,-0.0618,-0.063,-0.0685,-0.0704,-0.0482,-0.0481,-0.0481,-0.048,0,-0.0174,-0.015,-0.0205,-0.0225,-0.0253,-0.0255,-0.0267,-0.0292,-0.0299,-0.0352,-0.0323,-0.0345,-0.0377,-0.0387,-0.0391,-0.0477,-0.0459,-0.0473,-0.0541,-0.059,-0.0605,-0.0619,-0.0676,-0.0694,-0.0477,-0.0477,-0.0477,0,-0.0091,-0.01,-0.0114,-0.0141,-0.0156,-0.0203,-0.0159,-0.0201,-0.0239,-0.0191,-0.0251,-0.0244,-0.0241,-0.0292,-0.0311,-0.0285,-0.0402,-0.0345,-0.0353,-0.0366,-0.0414,-0.0431,-0.0447,-0.0245,-0.0244,-0.0244,0,0,-0.007,-0.0096,-0.0101,-0.0133,-0.0142,-0.0149,-0.017,-0.0169,-0.0187,-0.0194,-0.0198,-0.0201,-0.0219,-0.0229,-0.0247,-0.0293,-0.0305,-0.0318,-0.0329,-0.0338,-0.0356,-0.0406,-0.0423,-0.0241,-0.0241,-0.0241,0,0,-0.0065,-0.0072,-0.0051,-0.0083,-0.0109,-0.0132,-0.0164,-0.0154,-0.0176,-0.0167,-0.0146,-0.0147,-0.0191,-0.0181,-0.0152,-0.023,-0.0183,-0.0189,-0.0239,-0.0252,-0.0263,-0.028,-0.0105,0,0,0,0,0,-0.0038,-0.0071,-0.0051,-0.0055,-0.0083,-0.0135,-0.0142,-0.0144,-0.0116,-0.0147,-0.0143,-0.0112,-0.0166,-0.0141,-0.0144,-0.0181,-0.0211,-0.0216,-0.0221,-0.0297,-0.0311,-0.0323,0,0,0,0,0,0,-0.004,-0.0043,-0.0051,-0.007,-0.0076,-0.0133,-0.0092,-0.0093,-0.0114,-0.0111,-0.0115,-0.0112,-0.0101,-0.0137,-0.014,-0.0176,-0.0104,-0.0213,-0.0217,-0.0222,-0.0301,-0.0313,-0.0323,0,0,0,0,0,-0.0041,-0.0044,-0.008,-0.007,-0.0076,-0.0088,-0.009,-0.0091,-0.0108,-0.0102,-0.0101,-0.0108,-0.0102,-0.0103,-0.0139,-0.0175,-0.0101,-0.0103,-0.0216,-0.0219,-0.0223,-0.0307,0,0,0,0,0,0,-0.0042,-0.0052,-0.0082,-0.0086,-0.0053,-0.0087,-0.0089,-0.0089,-0.0097,-0.0097,-0.0093,-0.0091,-0.0103,-0.0104,-0.0105,-0.0177,-0.0099,-0.0101,-0.0102,-0.0219,-0.0221,-0.0224,0,0,0,0,0,0,-0.0051,-0.0054,-0.0084,-0.0062,-0.0063,-0.0085,-0.0087,-0.0105,-0.0096,-0.0087,-0.0086,-0.0092,-0.009,-0.0105,-0.0106,-0.0136,-0.0098,-0.0099,-0.01,-0.0101,-0.0221,-0.0223,0,0,0,0,0,0,-0.0053,-0.0056,-0.0061,-0.0062,-0.0063,-0.0099,-0.0101,-0.0121,-0.01,-0.0086,-0.0096,-0.0094,-0.009,-0.0091,-0.0106,-0.0137,-0.0136,-0.0098,-0.0099,-0.0099,-0.01,0,0,0,0,0,0,0,-0.0055,-0.0024,-0.0063,-0.0062,-0.0062,-0.0116,-0.0116,-0.0117,-0.01,-0.0098,-0.0096,-0.0095,-0.0091,-0.0092,-0.0093,-0.0137,0,0,-0.0098,-0.0098,0,0,0,0,0,0,0,0,-0.0024,-0.0024,-0.0063,-0.0064,-0.0065,-0.0116,-0.0116,-0.0117,-0.0099,-0.0098,-0.0097,-0.0095,-0.0091,-0.0092,-0.0093,0,0,0,0,0,0,0,0,0,0,0,0,0,0,0,-0.0063,-0.0064,0,-0.0116,-0.0116,-0.0117,-0.0099,-0.0098,-0.0097,-0.0096,-0.0091,-0.0092,-0.0093,0,0,0,0,0,0,0,0,0,0,0,0,0,0,0,0,0,0,0,0,0,0,0,0,0,0,0,0,0,0,0,0,0,0,0,0,0,0,0,0,0,0,0,0,0,0,0,0,0,0,0,0,0,0,0,0,0,0,0,0,0,0,0,0,0,0,0,0,0]}],[{"header":{"parameterUnit":"kt","parameterCategory":2,"dx":1,"dy":1,"la1":30.253999710083008,"la2":30.299108505249023,"lo1":-89.0895004272461,"lo2":-89.04439544677734,"nx":28,"ny":28,"refTime":"2022-09-23T21:00:00:Z","depth":"0","parameterNumber":3,"parameterNumberName":"V-component_of_CURRENTS"},"data":[-0.2776,-0.2719,-0.2727,-0.2652,-0.2633,-0.2574,-0.254,-0.253,-0.2557,-0.2567,-0.256,-0.2571,-0.1902,-0.0785,0.0014,0.0131,0.0527,0.0561,0.0693,0.0226,0.0154,0.0086,0.0187,0.0783,0.0785,0.1493,0.1502,0.1509,-0.2857,-0.2846,-0.2802,-0.2742,-0.2708,-0.2704,-0.2642,-0.2603,-0.258,-0.2626,-0.2616,-0.2466,-0.2162,-0.1867,-0.1327,-0.0907,-0.0805,-0.0609,-0.0384,-0.0317,-0.1184,-0.1129,-0.0804,-0.0804,-0.0805,-0.0805,-0.0805,-0.0806,-0.2989,-0.2952,-0.2903,-0.2842,-0.2804,-0.2758,-0.2703,-0.2674,-0.263,-0.2597,-0.2576,-0.2562,-0.2388,-0.2313,-0.2165,-0.1707,-0.1775,-0.1559,-0.1346,-0.1312,-0.1116,-0.2102,-0.1991,-0.1993,-0.1995,-0.1996,-0.1997,0,-0.3067,-0.3057,-0.2997,-0.2938,-0.2886,-0.2822,-0.2761,-0.2728,-0.267,-0.2644,-0.2592,-0.2566,-0.2489,-0.2417,-0.2362,-0.2298,-0.1937,-0.2222,-0.1878,-0.1435,-0.1307,-0.116,-0.2194,-0.2092,-0.2095,-0.2096,-0.2098,-0.2099,-0.3154,-0.3116,-0.304,-0.2998,-0.2953,-0.2884,-0.2838,-0.2789,-0.2743,-0.267,-0.2639,-0.2582,-0.2543,-0.248,-0.2457,-0.243,-0.2184,-0.2275,-0.2307,-0.1961,-0.1727,-0.1651,-0.1531,-0.2125,-0.2122,-0.2119,-0.2117,0,-0.3193,-0.3151,-0.3069,-0.2992,-0.2971,-0.2922,-0.284,-0.2798,-0.2759,-0.2696,-0.2679,-0.263,-0.2586,-0.2562,-0.2534,-0.2535,-0.2299,-0.2496,-0.2353,-0.2328,-0.202,-0.1817,-0.1513,-0.1351,-0.2463,-0.2462,-0.2461,0,-0.3213,-0.3152,-0.3083,-0.3041,-0.2978,-0.2926,-0.2864,-0.2828,-0.2776,-0.2726,-0.2707,-0.2665,-0.2654,-0.2617,-0.2616,-0.2575,-0.2578,-0.2576,-0.2565,-0.245,-0.2438,-0.2127,-0.1916,-0.2599,-0.26,-0.26,-0.26,0,-0.3227,-0.3139,-0.308,-0.3046,-0.2951,-0.2923,-0.2886,-0.2833,-0.2788,-0.2745,-0.2716,-0.2694,-0.2665,-0.266,-0.2632,-0.2652,-0.2594,-0.2618,-0.2583,-0.2581,-0.2448,-0.2435,-0.2067,-0.2601,-0.2601,-0.2601,-0.2601,0,-0.3209,-0.3163,-0.3091,-0.3,-0.2983,-0.2944,-0.2883,-0.2835,-0.2787,-0.2758,-0.2734,-0.2713,-0.2692,-0.2702,-0.2671,-0.2682,-0.267,-0.2658,-0.2656,-0.2627,-0.262,-0.246,-0.2402,-0.2061,-0.262,-0.262,-0.262,0,-0.3215,-0.3153,-0.3118,-0.3045,-0.3002,-0.2964,-0.2916,-0.2872,-0.2835,-0.2792,-0.2772,-0.2724,-0.273,-0.2713,-0.2712,-0.2691,-0.2681,-0.2702,-0.2649,-0.2647,-0.2642,-0.262,-0.2481,-0.2416,-0.2626,-0.2625,-0.2625,0,-0.3224,-0.3145,-0.3138,-0.3098,-0.3044,-0.3018,-0.2967,-0.2917,-0.2891,-0.2837,-0.2801,-0.2744,-0.2748,-0.2718,-0.2704,-0.2699,-0.2687,-0.2692,-0.2691,-0.2681,-0.2651,-0.2629,-0.2623,-0.2689,-0.2689,-0.2689,-0.2629,0,-0.3159,-0.314,-0.3133,-0.3095,-0.3068,-0.3039,-0.2995,-0.2962,-0.2933,-0.2902,-0.2846,-0.2804,-0.2755,-0.2738,-0.2722,-0.2698,-0.2684,-0.2687,-0.2692,-0.2682,-0.2654,-0.265,-0.2685,-0.2685,-0.2684,-0.2684,0,0,-0.3163,-0.3159,-0.3155,-0.3129,-0.3104,-0.3088,-0.3056,-0.3022,-0.2962,-0.2941,-0.2928,-0.2832,-0.2797,-0.2746,-0.2736,-0.2711,-0.2695,-0.27,-0.2681,-0.268,-0.268,-0.2654,-0.2651,-0.2684,-0.2683,-0.2683,-0.2683,0,-0.3145,-0.3168,-0.3164,-0.3136,-0.3111,-0.3088,-0.3084,-0.3042,-0.3015,-0.2952,-0.2931,-0.2899,-0.2802,-0.2775,-0.2747,-0.2711,-0.2689,-0.2685,-0.2688,-0.2679,-0.2679,-0.2679,-0.2654,-0.2651,-0.2683,-0.2683,-0.2683,0,-0.3134,-0.3136,-0.3143,-0.3138,-0.312,-0.3088,-0.3089,-0.3067,-0.3031,-0.3003,-0.2937,-0.2906,-0.2851,-0.2791,-0.2762,-0.2761,-0.269,-0.2699,-0.27,-0.2701,-0.2691,-0.2691,-0.2691,-0.2698,-0.2698,-0.2698,0,0,-0.3119,-0.3128,-0.3115,-0.3136,-0.3125,-0.3099,-0.3085,-0.3067,-0.303,-0.3012,-0.2964,-0.2913,-0.2865,-0.2833,-0.2782,-0.2728,-0.2717,-0.2703,-0.2703,-0.2702,-0.2703,-0.2694,-0.2693,-0.2699,-0.2699,-0.27,0,0,-0.3106,-0.3106,-0.3112,-0.3137,-0.3112,-0.3079,-0.3068,-0.3056,-0.3011,-0.3009,-0.2962,-0.2946,-0.2888,-0.2855,-0.2875,-0.2779,-0.278,-0.2774,-0.2804,-0.2802,-0.2801,-0.2817,-0.285,0,0,0,0,0,-0.3087,-0.3108,-0.3114,-0.3118,-0.3115,-0.3084,-0.3076,-0.3053,-0.3056,-0.3039,-0.2998,-0.2978,-0.2853,-0.2869,-0.2853,-0.2831,-0.2712,-0.271,-0.2708,-0.2733,-0.2731,-0.273,0,0,0,0,0,0,-0.3089,-0.3096,-0.3112,-0.309,-0.3088,-0.3084,-0.3079,-0.3071,-0.3057,-0.3054,-0.2987,-0.2976,-0.2938,-0.2874,-0.286,-0.284,-0.2855,-0.2712,-0.271,-0.2708,-0.2732,-0.2731,-0.273,0,0,0,0,0,-0.309,-0.3095,-0.311,-0.3087,-0.3086,-0.3058,-0.3079,-0.3073,-0.3055,-0.3,-0.2989,-0.304,-0.2939,-0.2924,-0.2866,-0.2847,-0.2864,-0.2859,-0.271,-0.2709,-0.2707,-0.2732,0,0,0,0,0,0,-0.3091,-0.3069,-0.3108,-0.3104,-0.3092,-0.3056,-0.3054,-0.3074,-0.3,-0.2991,-0.305,-0.3049,-0.2939,-0.2928,-0.2917,-0.2852,-0.2871,-0.2866,-0.2863,-0.2709,-0.2708,-0.2707,0,0,0,0,0,0,-0.3066,-0.3067,-0.3105,-0.3113,-0.311,-0.3054,-0.3053,-0.3002,-0.2998,-0.3052,-0.305,-0.305,-0.2949,-0.293,-0.2922,-0.2843,-0.2877,-0.2872,-0.2869,-0.2867,-0.2708,-0.2707,0,0,0,0,0,0,-0.3065,-0.3066,-0.3114,-0.3111,-0.3109,-0.3063,-0.3004,-0.2997,-0.303,-0.3054,-0.303,-0.3031,-0.2952,-0.2943,-0.2925,-0.285,-0.2844,-0.2877,-0.2873,-0.2871,-0.287,0,0,0,0,0,0,0,-0.3064,-0.308,-0.3135,-0.311,-0.3107,-0.3073,-0.3071,-0.307,-0.303,-0.303,-0.303,-0.303,-0.2904,-0.2899,-0.2893,-0.2856,0,0,-0.2877,-0.2875,0,0,0,0,0,0,0,0,-0.3078,-0.308,-0.3135,-0.3134,-0.3134,-0.3073,-0.3071,-0.307,-0.303,-0.303,-0.303,-0.303,-0.2903,-0.2898,-0.2894,0,0,0,0,0,0,0,0,0,0,0,0,0,0,0,-0.3135,-0.3134,0,-0.3073,-0.3072,-0.307,-0.303,-0.303,-0.303,-0.303,-0.2901,-0.2898,-0.2894,0,0,0,0,0,0,0,0,0,0,0,0,0,0,0,0,0,0,0,0,0,0,0,0,0,0,0,0,0,0,0,0,0,0,0,0,0,0,0,0,0,0,0,0,0,0,0,0,0,0,0,0,0,0,0,0,0,0,0,0,0,0,0,0,0,0,0,0,0]}]],[[{"header":{"parameterUnit":"kt","parameterCategory":2,"dx":1,"dy":1,"la1":30.253999710083008,"la2":30.299108505249023,"lo1":-89.0895004272461,"lo2":-89.04439544677734,"nx":28,"ny":28,"refTime":"2022-09-23T21:00:00:Z","depth":"2","parameterNumber":2,"parameterNumberName":"U-component_of_CURRENTS"},"data":[-0.0904,-0.0835,-0.08,-0.0721,-0.0699,-0.0668,-0.0668,-0.0786,-0.0996,-0.1126,-0.1319,-0.174,-0.1459,-0.1243,-0.0866,-0.0617,-0.0573,-0.0467,-0.0708,-0.0774,-0.0801,-0.0602,-0.0663,0,0,0,0,0,-0.0936,-0.0897,-0.0855,-0.0816,-0.0806,-0.082,-0.0852,-0.0898,-0.0948,-0.1228,-0.1353,-0.1225,-0.1224,-0.1054,-0.0828,-0.0681,-0.0628,-0.0439,-0.0446,-0.0469,-0.0491,-0.0517,-0.0254,-0.0254,-0.0254,-0.0254,0,0,-0.0999,-0.0975,-0.0944,-0.0893,-0.0901,-0.0906,-0.0893,-0.0968,-0.1004,-0.1139,-0.1188,-0.1283,-0.1191,-0.117,-0.0949,-0.0732,-0.0833,-0.0694,-0.0704,-0.0718,-0.0751,-0.0684,-0.0553,-0.0555,-0.0556,-0.0557,-0.0559,0,-0.107,-0.1042,-0.1034,-0.0998,-0.0975,-0.0995,-0.0995,-0.1015,-0.1068,-0.1116,-0.1159,-0.1157,-0.1145,-0.1123,-0.1012,-0.0905,-0.0898,-0.0807,-0.1013,-0.0902,-0.0829,-0.0855,-0.0874,-0.0729,-0.0732,-0.0734,-0.0736,-0.0737,-0.113,-0.1112,-0.1103,-0.1089,-0.1073,-0.1046,-0.105,-0.1086,-0.1118,-0.1171,-0.1194,-0.1168,-0.1173,-0.1119,-0.1159,-0.1081,-0.106,-0.0866,-0.0968,-0.1121,-0.1145,-0.1155,-0.1165,-0.0766,-0.0762,-0.0759,-0.0756,0,-0.1156,-0.118,-0.1165,-0.118,-0.1175,-0.1138,-0.115,-0.1164,-0.1176,-0.1205,-0.1195,-0.1268,-0.1235,-0.1232,-0.1228,-0.1244,-0.1215,-0.1164,-0.0986,-0.0984,-0.1172,-0.1179,-0.1072,-0.107,-0.1068,-0.1067,-0.1065,0,-0.1229,-0.1209,-0.1239,-0.1228,-0.121,-0.1236,-0.1216,-0.1226,-0.126,-0.1286,-0.131,-0.1337,-0.1383,-0.1369,-0.1344,-0.1289,-0.1319,-0.1298,-0.1312,-0.122,-0.1207,-0.1477,-0.1489,-0.1389,-0.1391,-0.1392,-0.1393,0,-0.1264,-0.1288,-0.1279,-0.1285,-0.133,-0.13,-0.1303,-0.1339,-0.1356,-0.1365,-0.137,-0.1404,-0.1403,-0.1398,-0.1376,-0.1412,-0.1356,-0.1449,-0.1353,-0.1346,-0.1279,-0.1269,-0.1395,-0.1395,-0.1396,-0.1396,-0.1397,0,-0.1321,-0.134,-0.1338,-0.1364,-0.1359,-0.136,-0.1364,-0.1385,-0.1425,-0.1421,-0.1423,-0.1453,-0.1466,-0.1464,-0.1469,-0.1486,-0.1441,-0.1459,-0.1455,-0.1478,-0.1528,-0.1287,-0.1138,-0.1395,-0.1396,-0.1397,-0.1398,0,-0.1345,-0.1366,-0.1391,-0.1386,-0.139,-0.1403,-0.1425,-0.1452,-0.1457,-0.1469,-0.1496,-0.1513,-0.1505,-0.1492,-0.1507,-0.1564,-0.1513,-0.1563,-0.1573,-0.1571,-0.1556,-0.1447,-0.1328,-0.1161,-0.141,-0.1409,-0.1408,0,-0.1371,-0.141,-0.1392,-0.1394,-0.1418,-0.1444,-0.1441,-0.1482,-0.1478,-0.147,-0.1479,-0.1518,-0.1505,-0.1554,-0.1597,-0.1616,-0.1529,-0.162,-0.1625,-0.1544,-0.1496,-0.1464,-0.1452,-0.1597,-0.1597,-0.1596,-0.1418,0,-0.1447,-0.1431,-0.1415,-0.1441,-0.146,-0.1455,-0.1513,-0.149,-0.1459,-0.1511,-0.15,-0.1565,-0.1612,-0.1614,-0.166,-0.1661,-0.1626,-0.1711,-0.1782,-0.1716,-0.1638,-0.163,-0.1765,-0.1767,-0.1769,-0.1771,0,0,-0.1447,-0.1464,-0.1482,-0.1492,-0.1508,-0.153,-0.1538,-0.1568,-0.1617,-0.1617,-0.1581,-0.1654,-0.1702,-0.1777,-0.1741,-0.1774,-0.1748,-0.1775,-0.174,-0.1736,-0.1733,-0.1657,-0.1647,-0.1775,-0.1775,-0.1776,-0.1777,0,-0.1506,-0.1481,-0.1473,-0.1505,-0.1535,-0.1594,-0.1561,-0.1621,-0.1612,-0.1626,-0.1669,-0.1668,-0.173,-0.1806,-0.1853,-0.1799,-0.1824,-0.1777,-0.1719,-0.1755,-0.1749,-0.1743,-0.1667,-0.1656,-0.1781,-0.1781,-0.1781,0,-0.1543,-0.1577,-0.1575,-0.1627,-0.1655,-0.169,-0.1715,-0.1709,-0.173,-0.1798,-0.1775,-0.18,-0.189,-0.191,-0.1904,-0.1941,-0.1901,-0.1933,-0.1923,-0.1929,-0.1971,-0.1962,-0.1954,-0.2059,-0.206,-0.206,0,0,-0.1577,-0.157,-0.1661,-0.1651,-0.1655,-0.1722,-0.1736,-0.1755,-0.1796,-0.1786,-0.182,-0.1852,-0.19,-0.1911,-0.1961,-0.1982,-0.2004,-0.1963,-0.195,-0.1939,-0.1938,-0.1976,-0.1968,-0.2063,-0.2063,-0.2063,0,0,-0.1612,-0.1689,-0.1694,-0.169,-0.1743,-0.1864,-0.1837,-0.185,-0.1852,-0.1808,-0.1893,-0.1905,-0.1882,-0.1941,-0.1959,-0.1973,-0.203,-0.2029,-0.1937,-0.1922,-0.1909,-0.1896,-0.2043,0,0,0,0,0,-0.1714,-0.1689,-0.1693,-0.1704,-0.1794,-0.187,-0.1885,-0.1908,-0.1863,-0.1838,-0.1859,-0.19,-0.1971,-0.199,-0.2009,-0.1973,-0.209,-0.2085,-0.208,-0.1966,-0.1949,-0.1935,0,0,0,0,0,0,-0.1719,-0.1732,-0.1696,-0.1814,-0.1835,-0.1871,-0.1895,-0.1903,-0.1865,-0.1857,-0.19,-0.1907,-0.1987,-0.1986,-0.2001,-0.1966,-0.2038,-0.2088,-0.2084,-0.208,-0.196,-0.1946,-0.1934,0,0,0,0,0,-0.1724,-0.1735,-0.185,-0.1816,-0.1834,-0.1882,-0.189,-0.1897,-0.184,-0.1962,-0.1963,-0.1839,-0.1989,-0.2,-0.1996,-0.1956,-0.2028,-0.2034,-0.2085,-0.2082,-0.2079,-0.1953,0,0,0,0,0,0,-0.1728,-0.1756,-0.1857,-0.1866,-0.1776,-0.1877,-0.1886,-0.1892,-0.1944,-0.1949,-0.1915,-0.191,-0.1992,-0.2,-0.2009,-0.1947,-0.202,-0.2025,-0.2029,-0.2083,-0.208,-0.2078,0,0,0,0,0,0,-0.1751,-0.1762,-0.1862,-0.181,-0.1813,-0.1873,-0.188,-0.1949,-0.1942,-0.1894,-0.1892,-0.1912,-0.196,-0.2,-0.2007,-0.2117,-0.2014,-0.2019,-0.2023,-0.2025,-0.2081,-0.2079,0,0,0,0,0,0,-0.1758,-0.1768,-0.1807,-0.181,-0.1813,-0.1924,-0.1934,-0.2007,-0.1938,-0.189,-0.1928,-0.1924,-0.1959,-0.1967,-0.2006,-0.2114,-0.2116,-0.2014,-0.2017,-0.202,-0.2022,0,0,0,0,0,0,0,-0.1763,-0.1669,-0.18,-0.1811,-0.1813,-0.1957,-0.1959,-0.1962,-0.1937,-0.1933,-0.1929,-0.1926,-0.1983,-0.1989,-0.1995,-0.2111,0,0,-0.2013,-0.2016,0,0,0,0,0,0,0,0,-0.1667,-0.1668,-0.18,-0.1802,-0.1804,-0.1957,-0.1959,-0.1961,-0.1937,-0.1934,-0.193,-0.1927,-0.1985,-0.1989,-0.1994,0,0,0,0,0,0,0,0,0,0,0,0,0,0,0,-0.18,-0.1802,0,-0.1957,-0.1959,-0.1961,-0.1936,-0.1934,-0.1931,-0.1929,-0.1986,-0.199,-0.1994,0,0,0,0,0,0,0,0,0,0,0,0,0,0,0,0,0,0,0,0,0,0,0,0,0,0,0,0,0,0,0,0,0,0,0,0,0,0,0,0,0,0,0,0,0,0,0,0,0,0,0,0,0,0,0,0,0,0,0,0,0,0,0,0,0,0,0,0,0]}],[{"header":{"parameterUnit":"kt","parameterCategory":2,"dx":1,"dy":1,"la1":30.253999710083008,"la2":30.299108505249023,"lo1":-89.0895004272461,"lo2":-89.04439544677734,"nx":28,"ny":28,"refTime":"2022-09-23T21:00:00:Z","depth":"2","parameterNumber":3,"parameterNumberName":"V-component_of_CURRENTS"},"data":[-0.0206,-0.0212,-0.0218,-0.0266,-0.0298,-0.0305,-0.03,-0.0219,-0.0142,-0.0014,0.0294,0.0744,0.1322,0.1512,0.1733,0.1887,0.1674,0.176,0.1577,0.1828,0.1796,0.2061,0.2019,0,0,0,0,0,-0.0211,-0.0213,-0.0242,-0.026,-0.0273,-0.0277,-0.0252,-0.0211,-0.0126,-0.0007,0.0177,0.0691,0.1201,0.1389,0.1616,0.1669,0.1655,0.1654,0.1889,0.1877,0.1861,0.1825,0.2015,0.201,0.2006,0.2002,0,0,-0.0195,-0.0196,-0.0211,-0.0252,-0.0255,-0.024,-0.0237,-0.0184,-0.0105,-0.0005,0.0185,0.0506,0.087,0.1124,0.1169,0.123,0.1291,0.1611,0.1612,0.1606,0.1559,0.1483,0.1679,0.1675,0.1671,0.1668,0.1665,0,-0.0147,-0.0171,-0.0169,-0.0207,-0.0224,-0.0197,-0.0194,-0.0175,-0.0107,-0.0023,0.0143,0.0281,0.047,0.0854,0.0962,0.1103,0.1316,0.1401,0.1029,0.174,0.1677,0.1728,0.17,0.1916,0.1913,0.1911,0.1909,0.1908,-0.0093,-0.0116,-0.0127,-0.0139,-0.0155,-0.0169,-0.016,-0.011,-0.0077,0.0047,0.0081,0.0202,0.0343,0.0608,0.075,0.0926,0.0945,0.1343,0.1402,0.0978,0.1028,0.1019,0.101,0.1875,0.1879,0.1883,0.1885,0,-0.0057,-0.0046,-0.0071,-0.0063,-0.0067,-0.0094,-0.0068,-0.0042,-0.0009,0.0048,0.0055,0.0219,0.0352,0.0491,0.0768,0.0861,0.1036,0.1072,0.1328,0.1406,0.1037,0.1023,0.1117,0.1113,0.111,0.1108,0.1105,0,0.0021,-0.0009,0.0014,-0.0006,-0.0029,-0.0002,-0.0012,0.001,0.0068,0.011,0.0175,0.0257,0.0429,0.0566,0.0714,0.0864,0.0965,0.0993,0.1052,0.1339,0.1348,0.1238,0.124,0.1207,0.1206,0.1205,0.1204,0,0.009,0.0078,0.0054,0.0051,0.0076,0.0054,0.0056,0.0106,0.0138,0.0191,0.0218,0.0335,0.0406,0.0562,0.0717,0.0725,0.0956,0.104,0.1031,0.1023,0.144,0.1461,0.1202,0.1202,0.1202,0.1201,0.1201,0,0.0156,0.0155,0.0123,0.0143,0.0132,0.0112,0.0124,0.0141,0.0207,0.0229,0.0278,0.0355,0.0445,0.0466,0.0693,0.0624,0.0749,0.0865,0.0877,0.0863,0.0932,0.1349,0.1344,0.1019,0.1017,0.1015,0.1013,0,0.0227,0.0202,0.0213,0.0177,0.0164,0.0176,0.0185,0.0212,0.0238,0.0281,0.0357,0.0429,0.0447,0.0477,0.0541,0.0722,0.0776,0.0688,0.1039,0.1049,0.0915,0.0818,0.1147,0.1304,0.0989,0.0992,0.0993,0,0.0282,0.029,0.0265,0.0259,0.024,0.0251,0.0237,0.0267,0.0279,0.0296,0.0341,0.0437,0.0472,0.0568,0.0658,0.0728,0.0741,0.0797,0.0809,0.0842,0.0947,0.0803,0.0806,0.0808,0.0811,0.0813,0.0974,0,0.0389,0.0347,0.0319,0.0293,0.0299,0.0272,0.0312,0.0302,0.0298,0.0359,0.0409,0.0531,0.0661,0.0676,0.0754,0.0813,0.0853,0.0936,0.1043,0.0966,0.1045,0.1059,0.0968,0.0973,0.0977,0.098,0,0,0.0429,0.0398,0.04,0.0379,0.038,0.0396,0.0381,0.0416,0.0487,0.0513,0.0503,0.0694,0.0801,0.0919,0.0878,0.0942,0.1009,0.0972,0.0991,0.0991,0.0992,0.1063,0.1071,0.0987,0.0989,0.099,0.0991,0,0.0482,0.0434,0.0398,0.0411,0.0411,0.0458,0.0425,0.0486,0.0507,0.0537,0.0646,0.0696,0.0844,0.0965,0.1048,0.0986,0.1133,0.1003,0.0905,0.102,0.1014,0.1011,0.1077,0.1082,0.1001,0.1001,0.1,0,0.053,0.0528,0.051,0.0513,0.054,0.0548,0.0608,0.0599,0.0614,0.0763,0.0787,0.0869,0.1041,0.1098,0.1127,0.1183,0.1253,0.1228,0.121,0.1241,0.137,0.1362,0.1354,0.1451,0.1452,0.1452,0,0,0.0557,0.052,0.0568,0.0531,0.0527,0.06,0.0617,0.0649,0.0719,0.0739,0.0837,0.0946,0.1047,0.1096,0.1207,0.1261,0.1374,0.1271,0.125,0.1232,0.1251,0.1374,0.1366,0.1453,0.1453,0.1453,0,0,0.0602,0.0623,0.0619,0.0579,0.0614,0.0732,0.0717,0.0749,0.0806,0.0787,0.0947,0.0981,0.1016,0.1136,0.1133,0.124,0.1342,0.1345,0.1136,0.1113,0.1093,0.1084,0.1291,0,0,0,0,0,0.0663,0.0616,0.0611,0.061,0.0668,0.0722,0.0739,0.08,0.0796,0.0784,0.0865,0.0968,0.1173,0.1175,0.1212,0.1185,0.1472,0.1469,0.1466,0.1212,0.1185,0.1162,0,0,0,0,0,0,0.0663,0.0661,0.0614,0.0717,0.0731,0.0725,0.0793,0.0813,0.0798,0.0802,0.0948,0.0976,0.1106,0.1168,0.1198,0.1169,0.1281,0.1471,0.1468,0.1466,0.1202,0.118,0.1162,0,0,0,0,0,0.0664,0.0663,0.0713,0.0722,0.0734,0.081,0.0793,0.0809,0.0795,0.0973,0.0997,0.0824,0.1104,0.1136,0.1187,0.1151,0.1261,0.1272,0.1469,0.1467,0.1465,0.1192,0,0,0,0,0,0,0.0665,0.0718,0.072,0.073,0.0703,0.0812,0.0822,0.0805,0.0969,0.099,0.0864,0.0866,0.1104,0.1129,0.1152,0.1135,0.1245,0.1256,0.1263,0.1467,0.1466,0.1464,0,0,0,0,0,0,0.0719,0.0725,0.0726,0.0698,0.0706,0.0813,0.0821,0.0936,0.0972,0.0855,0.0859,0.0863,0.1072,0.1124,0.1142,0.1321,0.1233,0.1243,0.125,0.1255,0.1466,0.1465,0,0,0,0,0,0,0.0725,0.073,0.0697,0.0703,0.071,0.0835,0.0922,0.0984,0.0916,0.0849,0.0912,0.0911,0.1067,0.1087,0.1136,0.1305,0.1317,0.1233,0.124,0.1245,0.1248,0,0,0,0,0,0,0,0.073,0.0652,0.0647,0.0707,0.0713,0.0818,0.0822,0.0827,0.0915,0.0914,0.0913,0.0912,0.1173,0.1184,0.1196,0.1293,0,0,0.1232,0.1237,0,0,0,0,0,0,0,0,0.0653,0.0652,0.0647,0.0648,0.065,0.0819,0.0822,0.0826,0.0915,0.0914,0.0913,0.0912,0.1176,0.1185,0.1195,0,0,0,0,0,0,0,0,0,0,0,0,0,0,0,0.0647,0.0648,0,0.0819,0.0822,0.0825,0.0915,0.0914,0.0913,0.0912,0.1179,0.1186,0.1194,0,0,0,0,0,0,0,0,0,0,0,0,0,0,0,0,0,0,0,0,0,0,0,0,0,0,0,0,0,0,0,0,0,0,0,0,0,0,0,0,0,0,0,0,0,0,0,0,0,0,0,0,0,0,0,0,0,0,0,0,0,0,0,0,0,0,0,0,0]}]],[[{"header":{"parameterUnit":"kt","parameterCategory":2,"dx":1,"dy":1,"la1":30.253999710083008,"la2":30.299108505249023,"lo1":-89.0895004272461,"lo2":-89.04439544677734,"nx":28,"ny":28,"refTime":"2022-09-23T21:00:00:Z","depth":"4","parameterNumber":2,"parameterNumberName":"U-component_of_CURRENTS"},"data":[-0.0511,-0.0459,-0.0415,-0.0239,-0.016,-0.0093,-0.011,-0.0179,-0.0129,-0.0238,-0.0224,-0.0312,-0.0284,-0.0349,-0.0263,-0.0265,-0.0585,-0.0305,-0.0302,-0.093,-0.0971,-0.1008,-0.1277,0,0,0,0,0,-0.0562,-0.0501,-0.0456,-0.0405,-0.0344,-0.0354,-0.0381,-0.048,-0.0574,-0.04,-0.0644,-0.0378,-0.0343,-0.0324,-0.0291,-0.0324,-0.064,-0.0278,-0.081,-0.0956,-0.1001,-0.1247,0,0,0,0,0,0,-0.062,-0.0584,-0.0569,-0.058,-0.0567,-0.0497,-0.062,-0.0578,-0.0737,-0.0921,-0.0666,-0.0694,-0.0728,-0.0686,-0.0502,-0.0522,-0.0657,-0.0784,-0.0836,-0.0881,-0.1038,-0.0918,-0.0226,0,0,0,0,0,-0.0664,-0.0692,-0.0692,-0.0691,-0.0753,-0.079,-0.0926,-0.0965,-0.1265,-0.1479,-0.1288,-0.1278,-0.0961,-0.0988,-0.0882,-0.0807,-0.1339,-0.1074,-0.1106,-0.1585,-0.1522,-0.152,-0.1574,-0.1174,-0.118,-0.1184,-0.1186,0,-0.0739,-0.0732,-0.08,-0.0806,-0.0873,-0.1099,-0.1197,-0.1628,-0.1703,-0.1866,-0.1768,-0.1711,-0.1738,-0.129,-0.1412,-0.1287,-0.1322,-0.1188,-0.1698,-0.16,-0.1577,-0.1622,-0.1662,-0.1223,-0.122,-0.1217,-0.1214,0,-0.0762,-0.0799,-0.0799,-0.0937,-0.1012,-0.1179,-0.1492,-0.1638,-0.2072,-0.2191,-0.231,-0.2493,-0.2276,-0.2302,-0.2153,-0.2114,-0.1901,-0.1724,-0.2064,-0.2035,-0.1713,-0.174,-0.1283,-0.127,-0.1258,-0.1249,-0.1241,0,-0.0818,-0.0826,-0.0918,-0.0938,-0.1049,-0.128,-0.1522,-0.1827,-0.2195,-0.2276,-0.2735,-0.2693,-0.2966,-0.2766,-0.2761,-0.24,-0.2504,-0.2329,-0.2256,-0.2794,-0.2814,-0.2641,-0.2645,-0.2648,-0.2652,-0.2656,-0.2659,0,-0.0863,-0.0895,-0.0936,-0.0975,-0.1117,-0.1261,-0.1453,-0.1827,-0.2009,-0.2491,-0.2634,-0.2894,-0.3,-0.2989,-0.2891,-0.3051,-0.2634,-0.2837,-0.2428,-0.24,-0.2667,-0.2664,-0.2664,-0.2665,-0.2666,-0.2668,-0.2669,0,-0.0906,-0.0938,-0.0978,-0.1069,-0.1106,-0.1215,-0.1555,-0.1735,-0.2083,-0.2334,-0.2678,-0.2852,-0.3054,-0.316,-0.3103,-0.3229,-0.3149,-0.309,-0.307,-0.2678,-0.2654,-0.263,-0.2771,-0.2775,-0.2779,-0.2782,-0.2785,0,-0.0924,-0.0975,-0.1053,-0.1098,-0.1106,-0.1275,-0.144,-0.1633,-0.1902,-0.2154,-0.2432,-0.2772,-0.2922,-0.3198,-0.3246,-0.3296,-0.3229,-0.3407,-0.2983,-0.2962,-0.2659,-0.2719,-0.3393,-0.2838,-0.2831,-0.2826,-0.2823,0,-0.097,-0.1007,-0.1025,-0.1036,-0.1191,-0.1241,-0.1418,-0.1571,-0.173,-0.1987,-0.2229,-0.2712,-0.2882,-0.3038,-0.3254,-0.3273,-0.328,-0.328,-0.3272,-0.298,-0.3068,-0.2807,-0.2749,-0.34,-0.3399,-0.3397,-0.2859,0,-0.0994,-0.101,-0.1032,-0.1135,-0.1204,-0.1209,-0.1327,-0.1444,-0.1625,-0.1742,-0.2116,-0.235,-0.2677,-0.2907,-0.3004,-0.3252,-0.3126,-0.3179,-0.2998,-0.3183,-0.2921,-0.2894,-0.3132,-0.3127,-0.3122,-0.3119,0,0,-0.0999,-0.103,-0.1103,-0.1155,-0.1197,-0.123,-0.1251,-0.1319,-0.1427,-0.1532,-0.1623,-0.2162,-0.2344,-0.2673,-0.2853,-0.2938,-0.2823,-0.2966,-0.3142,-0.3147,-0.3149,-0.2909,-0.2888,-0.3111,-0.3109,-0.3107,-0.3106,0,-0.1019,-0.1095,-0.1112,-0.1144,-0.1184,-0.1216,-0.1228,-0.1291,-0.1354,-0.1529,-0.1646,-0.1905,-0.2242,-0.2408,-0.2553,-0.2848,-0.2777,-0.3066,-0.3137,-0.3109,-0.3119,-0.3127,-0.2894,-0.2879,-0.3095,-0.3096,-0.3096,0,-0.1036,-0.1115,-0.1114,-0.1182,-0.1191,-0.1215,-0.1216,-0.1229,-0.1291,-0.1333,-0.1503,-0.1704,-0.189,-0.2184,-0.2316,-0.2242,-0.259,-0.2648,-0.2673,-0.2547,-0.2501,-0.2518,-0.2533,-0.2316,-0.2314,-0.2312,0,0,-0.1073,-0.1124,-0.1148,-0.1184,-0.119,-0.1209,-0.1217,-0.1226,-0.1274,-0.1297,-0.1426,-0.1593,-0.1814,-0.1917,-0.2071,-0.2293,-0.2116,-0.2557,-0.2594,-0.2624,-0.2519,-0.248,-0.2499,-0.2303,-0.2303,-0.2303,0,0,-0.1067,-0.1132,-0.1141,-0.1196,-0.1193,-0.1212,-0.1219,-0.124,-0.1293,-0.1313,-0.1416,-0.1447,-0.1709,-0.1736,-0.1603,-0.2172,-0.2015,-0.2041,-0.2183,-0.2229,-0.2265,-0.2103,-0.1684,0,0,0,0,0,-0.1088,-0.1125,-0.1133,-0.1145,-0.1202,-0.1207,-0.1209,-0.1225,-0.1259,-0.1255,-0.1331,-0.1412,-0.1716,-0.1596,-0.1632,-0.1956,-0.2195,-0.2214,-0.2232,-0.2468,-0.2517,-0.2557,0,0,0,0,0,0,-0.1093,-0.111,-0.1131,-0.1158,-0.117,-0.1208,-0.1228,-0.1232,-0.1258,-0.1261,-0.1388,-0.1414,-0.1475,-0.1586,-0.1617,-0.1928,-0.1674,-0.2202,-0.2219,-0.2233,-0.2485,-0.2524,-0.2558,0,0,0,0,0,-0.1097,-0.111,-0.1209,-0.1156,-0.1167,-0.119,-0.1228,-0.1232,-0.1258,-0.1358,-0.1381,-0.1272,-0.1472,-0.1506,-0.1605,-0.1917,-0.1654,-0.1664,-0.2213,-0.2226,-0.2237,-0.2504,0,0,0,0,0,0,-0.11,-0.1103,-0.121,-0.1212,-0.116,-0.1187,-0.1196,-0.1232,-0.1357,-0.1375,-0.1248,-0.1249,-0.147,-0.1497,-0.1523,-0.1916,-0.1637,-0.1648,-0.1655,-0.2223,-0.2233,-0.2242,0,0,0,0,0,0,-0.1096,-0.1105,-0.1211,-0.1216,-0.1218,-0.1184,-0.1193,-0.1307,-0.1365,-0.1242,-0.1244,-0.1248,-0.1488,-0.1491,-0.1511,-0.1683,-0.1624,-0.1635,-0.1642,-0.1647,-0.2231,-0.2239,0,0,0,0,0,0,-0.1099,-0.1107,-0.1215,-0.1217,-0.1219,-0.1239,-0.1291,-0.1384,-0.1255,-0.1241,-0.1256,-0.1257,-0.1485,-0.1504,-0.1503,-0.1664,-0.1678,-0.1625,-0.1632,-0.1637,-0.164,0,0,0,0,0,0,0,-0.1102,-0.1056,-0.1201,-0.1218,-0.122,-0.1228,-0.1229,-0.1229,-0.1255,-0.1255,-0.1256,-0.1256,-0.1563,-0.1575,-0.1587,-0.165,0,0,-0.1624,-0.1629,0,0,0,0,0,0,0,0,-0.1052,-0.1055,-0.1201,-0.1201,-0.1202,-0.1229,-0.1229,-0.1229,-0.1255,-0.1255,-0.1256,-0.1256,-0.1567,-0.1576,-0.1586,0,0,0,0,0,0,0,0,0,0,0,0,0,0,0,-0.1201,-0.1201,0,-0.1229,-0.1229,-0.1229,-0.1255,-0.1255,-0.1256,-0.1256,-0.1569,-0.1577,-0.1585,0,0,0,0,0,0,0,0,0,0,0,0,0,0,0,0,0,0,0,0,0,0,0,0,0,0,0,0,0,0,0,0,0,0,0,0,0,0,0,0,0,0,0,0,0,0,0,0,0,0,0,0,0,0,0,0,0,0,0,0,0,0,0,0,0,0,0,0,0]}],[{"header":{"parameterUnit":"kt","parameterCategory":2,"dx":1,"dy":1,"la1":30.253999710083008,"la2":30.299108505249023,"lo1":-89.0895004272461,"lo2":-89.04439544677734,"nx":28,"ny":28,"refTime":"2022-09-23T21:00:00:Z","depth":"4","parameterNumber":3,"parameterNumberName":"V-component_of_CURRENTS"},"data":[-0.0492,-0.0563,-0.0589,-0.0665,-0.0734,-0.0843,-0.0887,-0.0917,-0.0799,-0.0796,-0.0605,-0.0526,-0.0171,-0.0423,0.0192,0.0267,0.0433,0.0721,0.0729,0.0932,0.0924,0.0916,0.0993,0,0,0,0,0,-0.0466,-0.0509,-0.0612,-0.0752,-0.0844,-0.0921,-0.1001,-0.1059,-0.1076,-0.0905,-0.0889,-0.0631,-0.0244,-0.0115,0.0185,0.0201,0.0571,0.0567,0.0737,0.0927,0.0917,0.0996,0,0,0,0,0,0,-0.0446,-0.0508,-0.0616,-0.0757,-0.0893,-0.0959,-0.107,-0.104,-0.1051,-0.093,-0.0891,-0.0649,-0.0507,-0.01,0.0124,0.0402,0.0525,0.0667,0.0672,0.0666,0.069,0.0469,0.06,0,0,0,0,0,-0.0436,-0.0488,-0.0613,-0.0762,-0.0909,-0.1067,-0.1175,-0.1156,-0.1168,-0.1145,-0.094,-0.069,-0.041,-0.0054,0.02,0.0456,0.0656,0.0729,0.0728,0.0881,0.0726,0.0703,0.068,0.0882,0.0881,0.088,0.0879,0,-0.0392,-0.047,-0.0697,-0.079,-0.0913,-0.1092,-0.1206,-0.1285,-0.1258,-0.1178,-0.1059,-0.0774,-0.0558,-0.0107,0.0196,0.053,0.0627,0.0702,0.0864,0.0709,0.0693,0.0671,0.065,0.0872,0.0872,0.0873,0.0874,0,-0.0369,-0.0477,-0.0659,-0.0884,-0.097,-0.1086,-0.1303,-0.1345,-0.1287,-0.1205,-0.1058,-0.0797,-0.0453,-0.0234,0.0195,0.0372,0.0633,0.0712,0.0418,0.0402,0.0647,0.0628,0.0859,0.0862,0.0864,0.0866,0.0868,0,-0.0379,-0.0508,-0.069,-0.0785,-0.0966,-0.1139,-0.1284,-0.1331,-0.1317,-0.1268,-0.1015,-0.0858,-0.0408,-0.0194,0.0085,0.0411,0.0426,0.0667,0.0677,0.0554,0.0534,0.0529,0.0504,0.0749,0.0749,0.075,0.075,0,-0.0335,-0.0568,-0.0713,-0.0803,-0.1067,-0.118,-0.1307,-0.1402,-0.1438,-0.1235,-0.113,-0.0809,-0.0539,-0.0235,0.0128,0.0177,0.0463,0.0502,0.0623,0.0615,0.0522,0.0497,0.0751,0.0751,0.0751,0.0751,0.0752,0,-0.0383,-0.0473,-0.0674,-0.0913,-0.097,-0.1123,-0.1296,-0.1413,-0.1394,-0.1324,-0.1121,-0.0932,-0.0564,-0.0413,-0.0001,-0.0006,0.0212,0.0337,0.0338,0.0363,0.0292,0.0135,0.0235,0.0233,0.023,0.0227,0.0225,0,-0.0314,-0.0469,-0.0573,-0.0803,-0.0917,-0.1044,-0.1181,-0.128,-0.13,-0.1281,-0.1084,-0.0936,-0.0752,-0.0519,-0.0296,-0.0029,0.0121,0.0043,0.0199,0.0197,0.0302,0.043,0.0257,0.0188,0.0193,0.0196,0.0199,0,-0.0248,-0.043,-0.0449,-0.0548,-0.0727,-0.0823,-0.0989,-0.1099,-0.1128,-0.1146,-0.1112,-0.0932,-0.0712,-0.0649,-0.0441,-0.0236,0.0038,-0.0068,-0.0063,-0.0041,0.0322,0.0368,0.0392,0.0223,0.023,0.0235,0.0173,0,-0.0307,-0.0381,-0.0416,-0.0529,-0.0638,-0.0737,-0.085,-0.0936,-0.0963,-0.0972,-0.0931,-0.0841,-0.0729,-0.0665,-0.054,-0.0287,-0.031,-0.0262,-0.019,-0.0134,-0.0198,-0.0177,-0.0457,-0.046,-0.0462,-0.0463,0,0,-0.022,-0.0275,-0.0282,-0.0363,-0.0452,-0.0498,-0.0621,-0.0679,-0.0807,-0.0815,-0.0804,-0.0762,-0.0698,-0.0579,-0.0492,-0.055,-0.0478,-0.0387,-0.0226,-0.0199,-0.0175,-0.0225,-0.0203,-0.0467,-0.0468,-0.0468,-0.0469,0,-0.0214,-0.0202,-0.0239,-0.0318,-0.041,-0.0471,-0.0503,-0.0599,-0.0623,-0.0755,-0.0688,-0.0619,-0.0684,-0.0579,-0.0539,-0.0579,-0.0443,-0.053,-0.0408,-0.0248,-0.0219,-0.0193,-0.0237,-0.0215,-0.0474,-0.0474,-0.0473,0,-0.0174,-0.0185,-0.0202,-0.0269,-0.0318,-0.0431,-0.0384,-0.0465,-0.0558,-0.0513,-0.0631,-0.0578,-0.0561,-0.0548,-0.055,-0.0526,-0.0415,-0.0479,-0.0474,-0.0456,-0.029,-0.0261,-0.0235,-0.0544,-0.0543,-0.0543,0,0,-0.0158,-0.0165,-0.0244,-0.0273,-0.0308,-0.0369,-0.0413,-0.0439,-0.05,-0.0518,-0.0539,-0.0547,-0.0534,-0.0516,-0.0558,-0.0556,-0.0532,-0.0477,-0.0474,-0.0471,-0.0451,-0.0287,-0.0262,-0.054,-0.0539,-0.0539,0,0,-0.0158,-0.0198,-0.0205,-0.023,-0.0316,-0.0382,-0.0417,-0.0436,-0.0495,-0.0484,-0.0464,-0.0468,-0.0499,-0.0511,-0.0482,-0.0426,-0.0457,-0.0465,-0.034,-0.0337,-0.0335,-0.029,-0.0353,0,0,0,0,0,-0.0186,-0.0198,-0.0205,-0.0218,-0.0283,-0.0386,-0.0401,-0.0416,-0.0385,-0.0422,-0.0459,-0.0371,-0.0488,-0.0463,-0.0467,-0.0342,-0.0501,-0.0508,-0.0514,-0.0363,-0.0359,-0.0356,0,0,0,0,0,0,-0.0191,-0.0202,-0.0207,-0.0265,-0.0284,-0.0382,-0.0326,-0.033,-0.038,-0.0375,-0.0375,-0.0371,-0.0346,-0.0454,-0.0459,-0.0338,-0.0351,-0.0503,-0.0509,-0.0515,-0.0361,-0.0359,-0.0356,0,0,0,0,0,-0.0196,-0.0205,-0.0289,-0.0267,-0.0282,-0.0327,-0.0321,-0.0325,-0.0352,-0.0355,-0.0351,-0.0364,-0.0348,-0.035,-0.0456,-0.0335,-0.0347,-0.0349,-0.0507,-0.0512,-0.0516,-0.036,0,0,0,0,0,0,-0.02,-0.0205,-0.0294,-0.0303,-0.0238,-0.0322,-0.0326,-0.0321,-0.0327,-0.0329,-0.034,-0.0335,-0.0351,-0.0352,-0.0354,-0.0332,-0.0343,-0.0346,-0.0347,-0.0511,-0.0514,-0.0518,0,0,0,0,0,0,-0.0203,-0.0211,-0.0298,-0.026,-0.0264,-0.0318,-0.0322,-0.0355,-0.0324,-0.0307,-0.0307,-0.0338,-0.0332,-0.0353,-0.0355,-0.0409,-0.0341,-0.0343,-0.0344,-0.0345,-0.0514,-0.0516,0,0,0,0,0,0,-0.0208,-0.0215,-0.0256,-0.026,-0.0263,-0.0355,-0.0346,-0.0393,-0.0346,-0.0304,-0.0339,-0.0335,-0.0333,-0.0335,-0.0355,-0.0409,-0.0409,-0.0341,-0.0342,-0.0343,-0.0344,0,0,0,0,0,0,0,-0.0212,-0.0139,-0.0254,-0.026,-0.0262,-0.0388,-0.0389,-0.039,-0.0346,-0.0342,-0.0339,-0.0336,-0.0328,-0.033,-0.0333,-0.041,0,0,-0.034,-0.0342,0,0,0,0,0,0,0,0,-0.0138,-0.0139,-0.0255,-0.0257,-0.026,-0.0388,-0.0389,-0.039,-0.0345,-0.0343,-0.034,-0.0338,-0.0329,-0.0331,-0.0333,0,0,0,0,0,0,0,0,0,0,0,0,0,0,0,-0.0255,-0.0257,0,-0.0388,-0.0389,-0.039,-0.0345,-0.0343,-0.0341,-0.0339,-0.0329,-0.0331,-0.0332,0,0,0,0,0,0,0,0,0,0,0,0,0,0,0,0,0,0,0,0,0,0,0,0,0,0,0,0,0,0,0,0,0,0,0,0,0,0,0,0,0,0,0,0,0,0,0,0,0,0,0,0,0,0,0,0,0,0,0,0,0,0,0,0,0,0,0,0,0]}]]]